Theta_e
320 316 315 315 313 311 312 313 314 315 315 314 313 314 313 309 308 309 307 307 307 306
317 316 314 315 314 313 314 313 314 314 313 313 313 312 312 308 308 308 308 308 308 306
316 316 315 314 314 314 316 314 313 313 313 313 313 312 312 310 310 308 308 306 307 307
314 314 315 315 315 315 315 314 312 312 313 313 312 313 312 312 311 308 308 308 304 304
315 315 315 316 316 316 314 314 313 312 312 312 312 313 312 311 311 310 309 309 307 305
315 315 316 316 316 316 315 315 314 313 312 312 313 312 312 311 310 310 310 309 307 305
316 317 317 316 315 315 315 314 313 313 312 312 312 311 311 311 310 310 309 308 306 304
315 317 316 314 315 315 314 313 313 311 311 312 311 308 310 310 309 308 306 305 304 305
314 314 315 314 315 313 313 312 312 311 310 310 309 304 302 305 306 305 304 303 303 304
313 313 314 314 312 312 312 312 311 311 311 310 311 302 300 301 306 305 304 303 302 299
313 311 311 311 311 312 311 311 310 310 310 310 310 300 298 299 305 305 305 300 299 297
311 310 311 310 311 311 310 311 310 309 309 310 310 300 297 299 305 304 303 300 299 297
310 310 311 311 311 311 309 308 308 309 309 306 308 301 297 298 303 302 300 301 302 299
311 312 312 311 311 309 308 308 308 308 308 308 307 306 297 296 301 301 300 299 299 301
Wind_Speed
9 6 6 5 4 3 2 2 2 2 1 1 2 1 3 3 4 5 4 5 5 5
8 7 6 6 5 4 3 2 1 1 3 3 3 4 5 4 4 4 4 5 5 6
7 7 6 6 5 4 2 0 2 3 4 5 5 5 5 5 6 8 7 6 7 8
6 6 6 4 3 2 1 2 4 5 6 6 7 7 7 9 10 10 11 10 8 9
6 6 4 2 1 1 4 5 5 6 7 8 9 9 9 11 12 12 13 13 11 11
5 4 1 1 2 4 6 7 7 7 9 9 9 10 10 11 12 12 12 12 10 9
4 2 1 2 4 6 6 7 8 8 8 8 9 9 10 10 9 10 10 9 8 10
3 2 3 5 6 7 7 6 7 7 8 8 8 7 8 7 7 8 9 10 11 10
3 3 5 6 6 6 7 6 7 8 8 9 7 4 6 7 6 7 9 11 12 11
3 5 6 6 5 6 7 7 8 8 9 10 10 3 6 3 6 7 9 10 10 10
4 4 5 5 6 7 6 7 8 9 10 9 9 4 6 5 9 10 10 8 9 9
5 4 5 6 6 6 7 7 8 9 10 10 8 2 5 8 12 13 12 11 8 8
4 4 6 6 7 5 6 8 8 9 7 5 7 4 6 8 10 13 10 12 12 11
4 3 5 5 5 6 7 7 7 8 6 5 5 9 6 8 10 11 12 12 11 11
Wind_Direction
125 131 131 143 152 145 145 159 187 224 268 269 313 335 343 1 6 20 5 340 318 311
133 130 137 149 163 152 162 165 189 291 345 325 290 307 334 335 322 310 286 295 284 290
133 138 155 177 167 132 128 69 310 336 326 319 303 294 295 296 284 277 284 283 283 293
152 161 180 171 120 75 337 303 293 297 300 303 304 300 288 287 289 285 283 279 276 291
173 179 177 114 108 270 286 280 285 290 292 296 298 297 291 293 293 292 292 295 287 288
176 171 139 342 338 289 282 284 286 292 291 291 296 297 299 298 298 301 303 302 297 298
162 175 221 305 285 281 286 288 292 294 296 294 295 298 303 307 313 317 319 314 300 292
182 214 244 265 278 285 285 287 289 290 294 292 293 293 311 309 321 330 326 320 309 302
235 254 257 270 276 278 290 290 291 286 288 294 292 319 278 273 315 321 323 324 319 311
221 260 275 269 269 287 294 296 291 286 287 290 293 252 243 269 297 304 311 312 313 317
244 257 258 267 280 289 290 286 295 295 299 297 298 241 267 287 291 291 296 298 298 295
217 241 271 273 281 293 293 297 296 298 304 305 303 260 298 291 296 294 300 293 287 277
217 247 274 284 291 294 293 291 303 310 312 314 304 324 284 294 304 302 299 291 287 272
209 269 277 293 286 293 297 304 308 309 318 312 305 311 306 294 311 307 304 297 294 292